AUA45LA LHBP-LOWI

Flight info

Callsign AUA45LA
Flight time 1h 4m
Altitude 38000
Route GILEP DCT ZOLKU DCT SUNIS DCT ROPAG DCT NANIT NANIT2A
Aircraft A20N/M-SDE2E3FGHIRWXY/LB1

Departure

Time 2026-05-07 13:06
Airport Budapest Liszt Ferenc International Airport (LHBP)

Arrival

Time 2026-05-07 14:10
Airport Innsbruck Airport (LOWI)
Time Latitude Longitude Altitude Speed Heading
2026-05-07 12:32 47.43412 19.26134 457 ft 0 kts 132°
2026-05-07 12:55 47.43415 19.26128 457 ft 4 kts 132°
2026-05-07 12:55 47.43434 19.26099 456 ft 4 kts 133°
2026-05-07 12:56 47.43449 19.26074 455 ft 3 kts 133°
2026-05-07 12:56 47.43469 19.26053 456 ft 4 kts 181°
2026-05-07 12:56 47.43491 19.26067 457 ft 4 kts 226°
2026-05-07 12:56 47.43500 19.26082 457 ft 1 kts 222°
2026-05-07 13:00 47.43496 19.26076 457 ft 2 kts 222°
2026-05-07 13:00 47.43476 19.26049 456 ft 5 kts 222°
2026-05-07 13:01 47.43442 19.26004 455 ft 8 kts 221°
2026-05-07 13:01 47.43421 19.25934 457 ft 8 kts 291°
2026-05-07 13:01 47.43468 19.25858 457 ft 11 kts 309°
2026-05-07 13:01 47.43447 19.25765 457 ft 11 kts 212°
2026-05-07 13:02 47.43384 19.25684 456 ft 13 kts 223°
2026-05-07 13:02 47.43320 19.25601 457 ft 8 kts 225°
2026-05-07 13:02 47.43294 19.25524 457 ft 9 kts 271°
2026-05-07 13:02 47.43335 19.25444 457 ft 12 kts 317°
2026-05-07 13:03 47.43334 19.25372 456 ft 7 kts 219°
2026-05-07 13:03 47.43288 19.25316 457 ft 10 kts 222°
2026-05-07 13:03 47.43234 19.25239 457 ft 12 kts 224°
2026-05-07 13:03 47.43170 19.25154 457 ft 13 kts 220°
2026-05-07 13:04 47.43148 19.25125 457 ft 1 kts 222°
2026-05-07 13:04 47.43133 19.25106 456 ft 4 kts 222°
2026-05-07 13:04 47.43104 19.25066 456 ft 8 kts 222°
2026-05-07 13:04 47.43062 19.25002 457 ft 4 kts 257°
2026-05-07 13:05 47.43079 19.24971 455 ft 5 kts 314°
2026-05-07 13:05 47.43219 19.24747 455 ft 65 kts 313°
2026-05-07 13:05 47.43675 19.24012 453 ft 125 kts 312°
2026-05-07 13:05 47.44359 19.22938 685 ft 146 kts 309°
2026-05-07 13:06 47.45079 19.21893 1249 ft 150 kts 309°
2026-05-07 13:06 47.45793 19.20752 1811 ft 153 kts 306°
2026-05-07 13:06 47.46507 19.19547 2355 ft 162 kts 305°
2026-05-07 13:06 47.47293 19.18197 2848 ft 181 kts 306°
2026-05-07 13:07 47.48179 19.16686 3348 ft 208 kts 304°
2026-05-07 13:07 47.48737 19.14663 3968 ft 222 kts 271°
2026-05-07 13:07 47.48531 19.12317 4688 ft 240 kts 252°
2026-05-07 13:07 47.47770 19.10038 5466 ft 253 kts 232°
2026-05-07 13:08 47.46518 19.08182 6500 ft 258 kts 218°
2026-05-07 13:08 47.45012 19.06721 7579 ft 259 kts 210°
2026-05-07 13:08 47.43397 19.05491 8684 ft 261 kts 206°
2026-05-07 13:08 47.41742 19.04353 9781 ft 263 kts 204°
2026-05-07 13:09 47.40065 19.03233 10601 ft 275 kts 204°
2026-05-07 13:09 47.38248 19.02013 11001 ft 299 kts 205°
2026-05-07 13:09 47.36289 19.00684 11471 ft 317 kts 205°
2026-05-07 13:09 47.34269 18.99301 12357 ft 321 kts 205°
2026-05-07 13:10 47.32257 18.97820 13244 ft 326 kts 212°
2026-05-07 13:10 47.30512 18.95649 14089 ft 332 kts 228°
2026-05-07 13:10 47.29276 18.92754 14860 ft 340 kts 245°
2026-05-07 13:10 47.28722 18.89332 15605 ft 351 kts 263°
2026-05-07 13:11 47.28988 18.85706 16366 ft 362 kts 283°
2026-05-07 13:11 47.30085 18.82315 17108 ft 374 kts 301°
2026-05-07 13:11 47.31600 18.79205 17849 ft 380 kts 303°
2026-05-07 13:11 47.33192 18.76056 18570 ft 385 kts 303°
2026-05-07 13:12 47.34797 18.72881 19250 ft 387 kts 303°
2026-05-07 13:12 47.36408 18.69663 19915 ft 391 kts 302°
2026-05-07 13:12 47.38020 18.66414 20601 ft 394 kts 302°
2026-05-07 13:12 47.39635 18.63132 21269 ft 397 kts 300°
2026-05-07 13:13 47.41074 18.59662 21949 ft 396 kts 292°
2026-05-07 13:13 47.42193 18.55965 22597 ft 394 kts 285°
2026-05-07 13:13 47.43023 18.52093 23262 ft 395 kts 281°
2026-05-07 13:13 47.43810 18.48193 23858 ft 398 kts 282°
2026-05-07 13:14 47.44612 18.44269 24427 ft 400 kts 282°
2026-05-07 13:14 47.45419 18.40325 24988 ft 402 kts 281°
2026-05-07 13:14 47.46222 18.36386 25548 ft 404 kts 281°
2026-05-07 13:14 47.47032 18.32399 26079 ft 406 kts 281°
2026-05-07 13:15 47.47842 18.28397 26614 ft 408 kts 281°
2026-05-07 13:15 47.48660 18.24355 27121 ft 410 kts 281°
2026-05-07 13:15 47.49499 18.20340 27636 ft 412 kts 281°
2026-05-07 13:15 47.50366 18.16295 28121 ft 414 kts 281°
2026-05-07 13:16 47.51244 18.12223 28594 ft 416 kts 281°
2026-05-07 13:16 47.52129 18.08135 29043 ft 418 kts 281°
2026-05-07 13:16 47.53022 18.04028 29466 ft 420 kts 281°
2026-05-07 13:16 47.53765 17.99868 29892 ft 415 kts 273°
2026-05-07 13:17 47.54211 17.95642 30274 ft 417 kts 272°
2026-05-07 13:17 47.54651 17.91383 30615 ft 419 kts 272°
2026-05-07 13:17 47.55075 17.87098 30944 ft 420 kts 270°
2026-05-07 13:17 47.55182 17.84251 31195 ft 416 kts 264°
2026-05-07 13:18 47.54798 17.78667 31809 ft 407 kts 253°
2026-05-07 13:18 47.54324 17.75938 31949 ft 402 kts 248°
2026-05-07 13:18 47.52280 17.68368 31992 ft 397 kts 244°
2026-05-07 13:19 47.50172 17.60798 31987 ft 398 kts 244°
2026-05-07 13:19 47.48066 17.53244 31990 ft 398 kts 244°
2026-05-07 13:20 47.45949 17.45683 31992 ft 398 kts 244°
2026-05-07 13:20 47.43829 17.38133 31991 ft 398 kts 244°
2026-05-07 13:21 47.41713 17.30622 31991 ft 398 kts 243°
2026-05-07 13:21 47.39583 17.23077 31991 ft 398 kts 243°
2026-05-07 13:22 47.37438 17.15511 31986 ft 398 kts 243°
2026-05-07 13:22 47.35293 17.07969 31985 ft 398 kts 243°
2026-05-07 13:23 47.33145 17.00435 31978 ft 398 kts 243°
2026-05-07 13:23 47.31006 16.92960 31975 ft 398 kts 243°
2026-05-07 13:24 47.28848 16.85441 31970 ft 398 kts 243°
2026-05-07 13:24 47.26683 16.77919 31969 ft 398 kts 243°
2026-05-07 13:25 47.24509 16.70397 31960 ft 399 kts 243°
2026-05-07 13:25 47.22327 16.62863 31963 ft 400 kts 243°
2026-05-07 13:26 47.20141 16.55337 31978 ft 399 kts 243°
2026-05-07 13:26 47.17966 16.47876 31974 ft 399 kts 243°
2026-05-07 13:27 47.15801 16.40339 31971 ft 400 kts 246°
2026-05-07 13:27 47.14846 16.32248 31954 ft 412 kts 264°
2026-05-07 13:28 47.15658 16.23766 31951 ft 422 kts 274°
2026-05-07 13:28 47.16782 16.15344 31950 ft 422 kts 274°
2026-05-07 13:29 47.17892 16.06870 31951 ft 421 kts 274°
2026-05-07 13:29 47.18994 15.98388 31946 ft 421 kts 274°
2026-05-07 13:30 47.20083 15.89955 31952 ft 421 kts 274°
2026-05-07 13:30 47.21172 15.81460 31943 ft 422 kts 273°
2026-05-07 13:31 47.21824 15.72946 31934 ft 418 kts 269°
2026-05-07 13:31 47.22387 15.64418 31938 ft 419 kts 269°
2026-05-07 13:32 47.22954 15.55880 31939 ft 419 kts 269°
2026-05-07 13:32 47.23508 15.47384 31934 ft 419 kts 269°
2026-05-07 13:33 47.24054 15.38813 31943 ft 420 kts 269°
2026-05-07 13:33 47.24595 15.30243 31928 ft 419 kts 269°
2026-05-07 13:34 47.25389 15.17474 31917 ft 419 kts 269°
2026-05-07 13:35 47.25912 15.08925 31924 ft 418 kts 269°
2026-05-07 13:35 47.26429 15.00364 31923 ft 417 kts 269°
2026-05-07 13:36 47.26939 14.91822 31939 ft 421 kts 269°
2026-05-07 13:36 47.27446 14.83239 31937 ft 419 kts 269°
2026-05-07 13:37 47.27946 14.74654 31941 ft 420 kts 269°
2026-05-07 13:37 47.28436 14.66129 31935 ft 420 kts 269°
2026-05-07 13:38 47.28923 14.57532 31936 ft 420 kts 269°
2026-05-07 13:38 47.29403 14.48990 31940 ft 418 kts 269°
2026-05-07 13:39 47.29876 14.40431 31938 ft 417 kts 269°
2026-05-07 13:39 47.30338 14.31887 31949 ft 419 kts 269°
2026-05-07 13:40 47.30798 14.23365 31933 ft 419 kts 269°
2026-05-07 13:40 47.31025 14.19057 31760 ft 422 kts 270°
2026-05-07 13:40 47.31252 14.14724 31498 ft 426 kts 270°
2026-05-07 13:40 47.31480 14.10371 31255 ft 426 kts 270°
2026-05-07 13:41 47.31708 14.06006 31026 ft 426 kts 270°
2026-05-07 13:41 47.31931 14.01698 30771 ft 426 kts 270°
2026-05-07 13:41 47.32157 13.97290 30520 ft 426 kts 270°
2026-05-07 13:41 47.32377 13.93009 30279 ft 423 kts 270°
2026-05-07 13:42 47.32598 13.88681 30045 ft 422 kts 270°
2026-05-07 13:42 47.32814 13.84372 29757 ft 420 kts 270°
2026-05-07 13:42 47.33025 13.80084 29509 ft 419 kts 270°
2026-05-07 13:42 47.33232 13.75750 29205 ft 428 kts 271°
2026-05-07 13:43 47.33445 13.71357 28686 ft 426 kts 271°
2026-05-07 13:43 47.33657 13.67011 28145 ft 421 kts 271°
2026-05-07 13:43 47.33862 13.62784 27605 ft 414 kts 271°
2026-05-07 13:43 47.34064 13.58565 27074 ft 411 kts 271°
2026-05-07 13:44 47.34263 13.54366 26557 ft 409 kts 271°
2026-05-07 13:44 47.34460 13.50197 26049 ft 406 kts 271°
2026-05-07 13:44 47.34653 13.46050 25566 ft 404 kts 271°
2026-05-07 13:44 47.34845 13.41931 25147 ft 401 kts 271°
2026-05-07 13:45 47.35033 13.37843 24732 ft 398 kts 271°
2026-05-07 13:45 47.35218 13.33777 24329 ft 396 kts 271°
2026-05-07 13:45 47.35401 13.29735 23929 ft 394 kts 272°
2026-05-07 13:45 47.35582 13.25708 23523 ft 392 kts 272°
2026-05-07 13:46 47.35758 13.21754 23060 ft 390 kts 272°
2026-05-07 13:46 47.35934 13.17783 22583 ft 386 kts 272°
2026-05-07 13:46 47.36107 13.13845 22128 ft 383 kts 272°
2026-05-07 13:46 47.36278 13.09932 21675 ft 380 kts 272°
2026-05-07 13:47 47.36446 13.06040 21231 ft 378 kts 272°
2026-05-07 13:47 47.36611 13.02177 20789 ft 375 kts 272°
2026-05-07 13:47 47.36774 12.98338 20351 ft 373 kts 272°
2026-05-07 13:47 47.36933 12.94590 19934 ft 371 kts 272°
2026-05-07 13:48 47.37091 12.90811 19504 ft 368 kts 272°
2026-05-07 13:48 47.37247 12.87044 19097 ft 367 kts 272°
2026-05-07 13:48 47.37401 12.83296 18687 ft 364 kts 272°
2026-05-07 13:48 47.37552 12.79592 18278 ft 361 kts 272°
2026-05-07 13:49 47.37703 12.75888 17817 ft 359 kts 272°
2026-05-07 13:49 47.37852 12.72215 17357 ft 357 kts 272°
2026-05-07 13:49 47.37998 12.68562 16909 ft 355 kts 272°
2026-05-07 13:49 47.38139 12.64989 16467 ft 351 kts 272°
2026-05-07 13:50 47.38281 12.61387 16030 ft 351 kts 272°
2026-05-07 13:50 47.38421 12.57800 15597 ft 349 kts 272°
2026-05-07 13:50 47.38559 12.54227 15173 ft 347 kts 272°
2026-05-07 13:50 47.38695 12.50692 14750 ft 345 kts 272°
2026-05-07 13:51 47.38831 12.47151 14331 ft 342 kts 272°
2026-05-07 13:51 47.38965 12.43646 13974 ft 342 kts 272°
2026-05-07 13:51 47.39097 12.40187 13595 ft 340 kts 272°
2026-05-07 13:51 47.39228 12.36718 13195 ft 338 kts 272°
2026-05-07 13:52 47.39364 12.33270 13026 ft 334 kts 274°
2026-05-07 13:52 47.39639 12.29838 12993 ft 338 kts 277°
2026-05-07 13:52 47.39994 12.26422 12997 ft 337 kts 278°
2026-05-07 13:52 47.40358 12.22995 12995 ft 338 kts 278°
2026-05-07 13:53 47.40707 12.19568 12990 ft 337 kts 277°
2026-05-07 13:53 47.41042 12.16137 12996 ft 337 kts 277°
2026-05-07 13:53 47.41369 12.12695 12990 ft 338 kts 277°
2026-05-07 13:53 47.41688 12.09267 12996 ft 337 kts 277°
2026-05-07 13:54 47.42006 12.05829 12995 ft 338 kts 277°
2026-05-07 13:54 47.42323 12.02388 12990 ft 337 kts 277°
2026-05-07 13:54 47.42636 11.98993 12989 ft 337 kts 277°
2026-05-07 13:54 47.42908 11.95547 12989 ft 338 kts 272°
2026-05-07 13:55 47.42881 11.92094 12992 ft 336 kts 264°
2026-05-07 13:55 47.42560 11.88662 12985 ft 336 kts 261°
2026-05-07 13:55 47.42207 11.85247 12984 ft 336 kts 261°
2026-05-07 13:55 47.41866 11.81872 12984 ft 336 kts 261°
2026-05-07 13:56 47.41523 11.78456 12985 ft 337 kts 261°
2026-05-07 13:56 47.41178 11.75034 12981 ft 337 kts 261°
2026-05-07 13:56 47.40830 11.71608 12979 ft 337 kts 261°
2026-05-07 13:56 47.40480 11.68180 12981 ft 337 kts 261°
2026-05-07 13:57 47.40133 11.64775 12981 ft 336 kts 261°
2026-05-07 13:57 47.39782 11.61335 12978 ft 338 kts 261°
2026-05-07 13:57 47.39433 11.57951 12975 ft 337 kts 261°
2026-05-07 13:57 47.39079 11.54525 12971 ft 337 kts 261°
2026-05-07 13:58 47.38725 11.51113 12968 ft 337 kts 261°
2026-05-07 13:58 47.38367 11.47678 12960 ft 337 kts 261°
2026-05-07 13:58 47.38000 11.44249 12964 ft 338 kts 261°
2026-05-07 13:58 47.37743 11.41985 12970 ft 338 kts 260°
2026-05-07 13:59 47.37347 11.38571 12966 ft 336 kts 260°
2026-05-07 13:59 47.36951 11.35172 12971 ft 336 kts 260°
2026-05-07 13:59 47.36556 11.31760 12966 ft 338 kts 260°
2026-05-07 13:59 47.36161 11.28356 12970 ft 336 kts 260°
2026-05-07 14:00 47.35768 11.24956 12961 ft 335 kts 260°
2026-05-07 14:00 47.35377 11.21580 12971 ft 332 kts 260°
2026-05-07 14:00 47.34987 11.18219 12980 ft 334 kts 260°
2026-05-07 14:00 47.34594 11.14845 12976 ft 331 kts 260°
2026-05-07 14:01 47.34200 11.11476 12976 ft 335 kts 260°
2026-05-07 14:01 47.33804 11.08098 12945 ft 334 kts 260°
2026-05-07 14:01 47.33417 11.04801 12745 ft 325 kts 260°
2026-05-07 14:01 47.33003 11.01578 12502 ft 314 kts 262°
2026-05-07 14:02 47.32847 10.98416 12278 ft 304 kts 269°
2026-05-07 14:02 47.32853 10.95354 12100 ft 292 kts 270°
2026-05-07 14:02 47.32869 10.92419 11972 ft 280 kts 270°
2026-05-07 14:02 47.32887 10.89595 11769 ft 272 kts 270°
2026-05-07 14:03 47.32799 10.86846 11501 ft 265 kts 256°
2026-05-07 14:03 47.31987 10.84476 11260 ft 260 kts 229°
2026-05-07 14:03 47.30515 10.82984 11009 ft 259 kts 201°
2026-05-07 14:03 47.28724 10.82721 10749 ft 270 kts 172°
2026-05-07 14:04 47.26942 10.83760 10510 ft 286 kts 145°
2026-05-07 14:04 47.25643 10.85910 10253 ft 282 kts 118°
2026-05-07 14:04 47.25132 10.88699 9974 ft 285 kts 91°
2026-05-07 14:04 47.25489 10.91567 9450 ft 289 kts 65°
2026-05-07 14:05 47.26650 10.93970 8902 ft 290 kts 40°
2026-05-07 14:05 47.28381 10.95461 8450 ft 285 kts 24°
2026-05-07 14:05 47.29906 10.97142 8218 ft 272 kts 50°
2026-05-07 14:05 47.30727 10.99575 7940 ft 262 kts 78°
2026-05-07 14:06 47.30844 11.02231 7664 ft 257 kts 91°
2026-05-07 14:06 47.30749 11.04851 7381 ft 254 kts 92°
2026-05-07 14:06 47.30645 11.07412 7129 ft 244 kts 97°
2026-05-07 14:06 47.30272 11.09736 6972 ft 229 kts 110°
2026-05-07 14:07 47.29637 11.11833 6718 ft 219 kts 114°
2026-05-07 14:07 47.29023 11.13842 6470 ft 211 kts 113°
2026-05-07 14:07 47.28449 11.15801 6198 ft 205 kts 112°
2026-05-07 14:07 47.27895 11.17719 5912 ft 204 kts 112°
2026-05-07 14:08 47.27342 11.19630 5503 ft 205 kts 111°
2026-05-07 14:08 47.26778 11.21568 5093 ft 202 kts 111°
2026-05-07 14:08 47.26243 11.23394 4687 ft 189 kts 111°
2026-05-07 14:08 47.25729 11.25125 4134 ft 183 kts 112°
2026-05-07 14:09 47.25316 11.26952 3374 ft 191 kts 100°
2026-05-07 14:09 47.25297 11.28868 2782 ft 182 kts 77°
2026-05-07 14:09 47.25620 11.30554 2398 ft 165 kts 77°
2026-05-07 14:09 47.25766 11.32125 2113 ft 144 kts 78°
2026-05-07 14:10 47.25926 11.33555 1902 ft 126 kts 79°
2026-05-07 14:10 47.26045 11.34621 1903 ft 70 kts 81°
2026-05-07 14:10 47.26090 11.35037 1903 ft 16 kts 81°
2026-05-07 14:10 47.26110 11.35214 1899 ft 17 kts 85°
2026-05-07 14:11 47.26069 11.35256 1903 ft 9 kts 174°
2026-05-07 14:11 47.25998 11.35273 1898 ft 12 kts 172°
2026-05-07 14:11 47.25949 11.35284 1894 ft 0 kts 171°
2026-05-07 14:11 47.25933 11.35288 1895 ft 4 kts 171°
2026-05-07 14:12 47.25902 11.35270 1903 ft 5 kts 255°
2026-05-07 14:12 47.25896 11.35203 1903 ft 8 kts 261°
2026-05-07 14:12 47.25878 11.35162 1895 ft 3 kts 188°
2026-05-07 14:12 47.25854 11.35173 1902 ft 1 kts 170°
2026-05-07 14:13 47.25837 11.35176 1900 ft 3 kts 171°
2026-05-07 14:13 47.25834 11.35177 1903 ft 0 kts 171°